Location: Unspecified
(0.0000°N, 0.0000°E)
Time: 13:31:26
(UTC+00:00)

Vanguard 2 - Pass Details

Date: 10 December 2017
Orbit: 553 x 2939 km, 32.9° (Epoch: 19 July)

Event Time Altitude Azimuth Distance (km) Brightness Sun altitude
Exits shadow 00:50:04 20° 124° (SE) 3,653 11.1 -63.2°
Drops below altitude 10° 00:53:22 10° 124° (SE) 4,671 11.7 -62.7°
Sets 00:57:54 0° 125° (SE) 6,024 12.5 -62.1°
